Tracking 31011 objects as of 13-Jul-2025
HD Live streaming from Space Station
objects crossing your sky now

CZ-6A DEB

Track CZ-6A DEB now!
10-day predictions


NORAD ID: 56670
Int'l Code: 2022-151AGW
Perigee: 816.7 km
Apogee: 881.7 km
Inclination: 98.8 °
Period: 101.8 minutes
Semi major axis: 7220 km
RCS: Unknown
Launch date: November 11, 2022
Source: People's Republic of China (PRC)
Launch site: Taiyaun Space Center, China (TSC)

Note: This is SATELLITE DEBRIS
Your satellite tracking list
Your tracking list is empty




NASA's NSSDC Master Catalog

Two Line Element Set (TLE):
1 56670U 22151AGW 25193.76289168  .00001094  00000-0  58109-3 0  9992
2 56670  98.7967 194.8410 0045027 168.2737 191.9496 14.15068051114546
Source of the keplerian elements: AFSPC